Regional Weather Roundup
Issued by NWS

Home | Current Version | Previous Version | Text Only | Print | Product List | Glossary On
Versions: 1 2 3 4 5 6 7 8 9 10 11 12 13 14 15 16 17 18 19 20 21 22 23 24 25 26 27 28 29 30 31 32 33 34 35 36 37 38 39 40 41 42 43 44 45 46 47 48
000
ASUS45 KBOU 261710
RWRCO

WEATHER ROUNDUP FOR COLORADO
NATIONAL WEATHER SERVICE PUEBLO CO
1100 AM MDT THU APR 26 2018

NOTE: "FAIR" INDICATES FEW OR NO CLOUDS BELOW 12000 FEET WITH NO
SIGNIFICANT WEATHER AND/OR OBSTRUCTIONS TO VISIBILITY.

COZ001>005-013-030-031-261800-
...NORTHWEST COLORADO...

CITY           SKY/WX    TMP DP  RH WIND       PRES   REMARKS
CRAIG          SUNNY     52  25  35 VRB6      30.30S
HAYDEN         SUNNY     50  24  36 CALM      30.31S
MEEKER         SUNNY     55  24  30 NE15      30.29S
RABBIT EARS PA NOT AVBL
STEAMBOAT SPGS FAIR      49  20  33 NW8       30.28F
WALDEN         FAIR      43  16  33 N5        30.33R
$$

COZ006>008-011-261800-
...WEST CENTRAL VALLEYS...

CITY           SKY/WX    TMP DP  RH WIND       PRES   REMARKS
GRAND JUNCTION SUNNY     66  22  18 E16       30.21R
MONTROSE       SUNNY     59  17  19 NW9       30.24S
EAGLE          SUNNY     56  17  21 NE8G17    30.27F
RIFLE          SUNNY     59  24  26 W5        30.25R
DELTA          NOT AVBL
NUCLA          FAIR      64  12  13 N12       30.24F
$$

COZ017>023-064>068-261800-
...SOUTHWEST COLORADO...

CITY           SKY/WX    TMP DP  RH WIND       PRES   REMARKS
DURANGO        SUNNY     61  11  14 SE6       30.15S
CORTEZ         SUNNY     66  10  11 N18G28    30.17S
PAGOSA SPRINGS FAIR      60   8  12 S6        30.20S
TELLURIDE      SUNNY     51   9  18 W12       30.31R
WOLF CREEK PAS SUNNY     34  10  37 NW6       30.41S WCI  29
$$

COZ009-010-012-014-032>034-037-058>063-261800-
...CENTRAL COLORADO...

CITY           SKY/WX    TMP DP  RH WIND       PRES   REMARKS
ASPEN          SUNNY     52  12  20 N15       30.27R
BUENA VISTA    FAIR      52  12  20 NW12G26   30.25R
COPPER MTN     NOT AVBL
BERTHOUD PASS  FAIR      21  12  68 NW16G32   30.36R WCI   7
COTTONWOOD PAS SUNNY     54  12  19 CALM      30.29S
GUNNISON       SUNNY     53  14  21 S5        30.25S
KREMMLING      SUNNY     54  19  26 N7        30.30S
LEADVILLE      SUNNY     41  13  31 N14G26    30.30R
MONARCH PASS   SUNNY     32   9  37 N15G25    30.46R WCI  22
SALIDA         FAIR      55  16  21 SE3       30.30S
SUNLIGHT       SUNNY     34  12  40 N6G18     30.41R WCI  29
WILKERSON PASS CLOUDY    28  23  80 E7        30.37R HAZE    WCI  21
$$

COZ069>075-261800-
...SAN LUIS VALLEY/SANGRE DE CRISTO MOUNTAINS...

CITY           SKY/WX    TMP DP  RH WIND       PRES   REMARKS
ALAMOSA        SUNNY     59   8  13 NW21G29   30.19S
DEL NORTE      FAIR      58  12  16 N13G18    30.21S
LA VETA PASS   MOSUNNY   36  23  60 NE14G30   30.43R
SAGUACHE       NOT AVBL
$$

COZ035-036-038>040-261800-
...NORTHERN COLORADO FRONT RANGE...

CITY           SKY/WX    TMP DP  RH WIND       PRES   REMARKS
DENVER INTL AP CLOUDY    51  29  42 N18G26    30.29R
DMNS CITY PARK NOT AVBL
AURORA         NOT AVBL
FRONT RANGE AP CLOUDY    50  30  46 N14G21    30.30R
ERIE MUNI ARPT FAIR      55  26  33 N15G25    30.34R
BOULDER MUN AP CLOUDY    50  27  40 NE10G16   30.30R
CENTENNIAL     CLOUDY    45  30  55 VRB7G22   30.31R
BROOMFIELD     CLOUDY    50  27  40 N13       30.31R
LOVELAND       PTSUNNY   53  29  39 N12       30.30R
LONGMONT       FAIR      57  26  30 N18G24    30.29S
$$

COZ041-046-047-076>085-087-088-261800-
...PIKES PEAK/PALMER DIVIDE AND SOUTHERN FOOTHILLS...

CITY           SKY/WX    TMP DP  RH WIND       PRES   REMARKS
COLO. SPRINGS  MOSUNNY   47  30  51 N26G38    30.29R
A. F. ACADEMY  NOT AVBL
SCHRIEVER AFB  NOT AVBL
CHEYENNE MTN   NOT AVBL
ELLICOTT         N/A    N/A N/A N/A N37G46    30.23R
FALCON         PTSUNNY   41  29  63 N25G35    30.29S
FORT CARSON    NOT AVBL
LIMON          SUNNY     52  27  38 N29G46    30.25R
MONUMENT HILL  FLURRIES  34  32  93 N13G20    30.34R WCI  25
CANON CITY     FAIR      61  32  33 NE9       30.19S
WALSENBURG     FAIR      57  28  33 NE17G23   30.26R
TRINIDAD       MOSUNNY   57  27  31 NE20G30   30.25R
$$

COZ042>045-048>051-090-091-261800-
...NORTHEAST COLORADO...

CITY           SKY/WX    TMP DP  RH WIND       PRES   REMARKS
GREELEY ARPT   MOSUNNY   55  27  34 N17G24    30.29R
AKRON          MOSUNNY   55  31  39 N25G39    30.25R
BURLINGTON     MOSUNNY   57  31  37 N31G45    30.15R
WRAY           FAIR      59  30  33 N35G40    30.18R
YUMA           NOT AVBL
STERLING       NOT AVBL
HOLYOKE        FAIR      59  32  36 N31G41    30.21R
FORT MORGAN    FAIR      57  26  29 N21G28    30.27F
$$

COZ086-089-092>099-261800-
...SOUTHEAST COLORADO...

CITY           SKY/WX    TMP DP  RH WIND       PRES   REMARKS
PUEBLO         SUNNY     57  31  37 N39G60    30.20R
LA JUNTA       PTSUNNY   59  30  33 N31G44    30.21R
LAMAR          MOSUNNY   60  31  33 N25G37    30.14R
SPRINGFIELD      N/A     60  28  29 N46G59    30.09R
$$





USA.gov is the U.S. government's official web portal to all federal, state and local government web resources and services.